211  
SXUS52 KCHS 290812  
OSOCHS  
 
MARINE OBSERVATIONS  
NATIONAL WEATHER SERVICE CHARLESTON SC  
300 AM EST MON NOV 29 2021  
   
..DOWNTOWN CHARLESTON AND HARBOR
 
 
 
CITY SKY/WX TMP DP RH WIND PRES REMARKS  
WATERFRONT PRK N/A 50 39 66 W7 29.78S  
   
..LAKE MOULTRIE
 
 
 
CITY SKY/WX TMP DP RH WIND PRES REMARKS  
PINOPOLIS N/A 46 41 81 W7 29.85S  
   
..LAKE AND SUPPLEMENTAL COASTAL OBSERVATIONS
 
 
 
STATION/POSITION TIME TEMP WIND PRES WAVE SWELL  
AIR SEA DIR/SP/G HT/PER HT/PER/DIR  
(UTC) (F) (DEG/KT/KT) (MB) (FT/S) (FT/S/D)  
CHRLSTN HARBOR 0730 50 58 270/ 7/ 10 1013.3R  
FORT PULASKI 0730 51 59 290/ 10/ 13 1014.6F  
SAPELO ISLAND 0700 51 280/ 7 1015.0  
WINYAH BAY 0645 49 270/ 7 1012.0  
LAKE MURRAY 0720 46 280/ 4/ 5 N/A  
ACE BASIN NERRS 0645 48 250/ 2 1014.0  
 
   
..C-MAN AND BUOY OBSERVATIONS
 
 
 
STATION/POSITION TIME TEMP WIND PRES WAVE SWELL  
AIR SEA DIR/SP/G HT/PER HT/PER/DIR  
(UTC) (F) (DEG/KT/KT) (MB) (FT/S) (FT/S/D)  
BUOY 41004 0750 59 74 300/ 16/ 19 1012.7R 4/ 5  
BUOY 41008 0750 55 63 290/ 19/ 23 1013.9F 3/ 4  
FOLLY BEACH CMAN 0800 49 290/ 6/ 11 1013.6S  
PRITCHARDS ISLAN NOT AVBL  
CAPERS NS BUOY 0708 53 59 280/ 16/ 19 1012.5S  
CAPERS NS WAVE 0748 59 N/A 2/ 5  
FRIPP NS BUOY 0708 54 59 270/ 17/ 25 1013.0S  
5E ST. MARYS GA 0730 55 61 N/A 2/ 3  
 
 
STATION/POSITION TIME TEMP WIND PRES WAVE SWELL  
AIR SEA DIR/SP/G HT/PER HT/PER/DIR  
(UTC) (F) (DEG/KT/KT) (MB) (FT/S) (FT/S/D)  
FRYING PAN BUOY 0750 60 69 310/ 16/ 19 1011.1F 4/ 6 2/190/14  
BUOY 41025 0750 58 73 310/ 16/ 19 1009.1S 4/ 6 2/100/13  
CAPE LOOKOUT NC 0800 53 320/ 10/ 13 1010.8F  
BUOY 41002 0750 70 74 270/ 19/ 23 1008.8F 5/ 5 2/100/15  
BUOY 41010 0750 68 76 310/ 14/ 19 1014.6F 3/ 5 2/ 40/14  
ST AUGUSTINE FL 0800 56 63 270/ 7/ 9 1016.2F  
 

 
 
 
CLICK HERE TO GO TO PREVIOUS BULLETINS.

The Nexlab SC Page
The Nexlab GA Page Main Text Page